COSMOS 886 DEB, 9961

Orbit data source: Space-Track

COSMOS 886 DEB, 9961 is space debris in LEO originally from a launch on Mon, 27 Dec 1976 UTC launched from the Tyuratam Missile And Space Complex (TTMTR). Debris objects in space refer to the collection of defunct objects orbiting the Earth. Examples of debris include non-operational satellites, rocket bodies, and fragments generated from explosions, collisions, or faulty payload assembly.

Loading next visibility...
Identifier
9961, 1976-126BB
Orbit
LEO
Country
Flag of CISCIS
Related business
Manufacturer
Unknown
Mission
Spacecraft
Bus & Motor
Unknown
Mass
Unknown
Launch date (UTC)
1976-12-27 (49 years ago)
Launch vehicle
Unknown
Launch site
Tyuratam Missile And Space Complex (TTMTR)
Object type
Payload
Rocket body
Debris
Shape & HBR
Unknown shape, 0.2 m
Radar Cross Section
Small (<0.1 m²)

Expand to show TLE details & history
Last TLE update: 13 hours ago

TLE from 13 hours ago
0 COSMOS 886 DEB
1  9961U 76126BB  26129.94941559  .00003013  00000-0  73345-3 0  9995
2  9961  65.7959 308.6537 0529029  82.3527 283.7274 13.93365142395292
Epoch: 2026-05-09T22:47Z
TLE epoch observation values (Epoch: 2026-05-09T22:47:09.506Z)
Latitude
-0.00004°
Longitude
99.10456°
Altitude
846.878 km
Speed
7.466 km/s
True Right ascension
20h 34m 36s
True Declination
0° 00' 00"
Sunlit
Object was in daylight at epoch
Visualization orbit readout
Latitude
Unknown
Longitude
Unknown
Altitude
Unknown
Speed
Unknown
Apparent Right ascension
Unknown
Apparent Declination
Unknown
Sunlit
N/A
Visualization observer readout
Local Sidereal Time
19:45:35
Azimuth
Unknown
Elevation
Unknown
Doppler factor
Unknown
Orbital elements
Apogee altitude
1,301.211 km
Perigee altitude
529.516 km
Semi-major axis
7,293.501 km
Eccentricity
0.0529
Inclination
65.7959°
RAAN
308.6537°
Arg. of periapsis
82.3527°
True anomaly
277.75536°
Mean anomaly
283.7274°
Eccentric anomaly
280.74948°
Mean motion
3.48449 °/min
Orbital period
103.31 mins
BSTAR
0.00073345
Loading maneuver chart data...
Computing Atmospheric mass density...
Loading historical data...
Loading historical data...
Loading historical data...
Loading historical data...
Loading historical data...
Loading historical data...
Loading historical data...

Documentation

Showing up to 5 results
|